Location: Makakahi
(40.6833°S, 175.6000°E)
Time: 00:37:26
(UTC+00:00)

FENGYUN 1C DEB - Pass Details

Date: 09 December 2024
Orbit: 812 x 877 km, 98.8° (Epoch: 19 January)

Event Time Altitude Azimuth Distance (km) Brightness Sun altitude
Rises 08:07:32 0° 154° (SSE) 3,382 ? -5.1°
Reaches altitude 10° 08:10:15 10° 142° (SE) 2,448 ? -5.5°
Maximum altitude 08:14:48 27° 85° (E) 1,560 ? -6.2°
Drops below altitude 10° 08:19:21 10° 28° (NNE) 2,453 ? -6.9°
Enters shadow 08:21:10 - 19° (NNE) 3,072 ? -7.2°
